Location: Long Geng
(2.6167°N, 114.1333°E)
Time: 20:33:18
(UTC+00:00)

Ariane 44LP R/B - Pass Details

Date: 21 September 2021
Orbit: 477 x 17832 km, 3.6° (Epoch: 18 October)

Event Time Altitude Azimuth Distance (km) Brightness Sun altitude
Exits shadow 21:05:03 30° 269° (W) 1,465 4.9 -17.8°
Maximum altitude 21:07:39 89° 356° (N) 1,158 4.8 -17.1°
Drops below altitude 10° 21:24:28 10° 88° (E) 7,484 10.6 -12.9°
Sets 21:37:33 0° 88° (E) 11,628 12.4 -9.7°
